LTARLTAU

Guest
Details From LTAR - SIVAS
To LTAU - ERKILET
Flight Number -
Tags generated
Created
Modified
Stats Distance 91 nm / 168 km
Max Altitude 7,200 ft / 2,195 m
Waypoints 3
Social Downloads 1
Likes 0
Share VATSIM

Download

Looking for another format? Having issues loading an existing format? Contact us
Advertisement - Login to hide

Notes

Basic altitude profile: - Ascent Rate: 2500ft/min - Ascent Speed: 250kts - Cruise Altitude: 35000ft - Cruise Speed: 420kts - Descent Rate: 1500ft/min - Descent Speed: 250kts Options: - Use NATs: yes - Use PACOTS: yes - Use low airways: yes - Use high airways: yes

Route

LTAR GEM LTAU

ID Type Via Altitude Latitude Longitude Leg Dist Tot Dist Heading (true) Name
O LTAR APT - 0 ft / 0 m 39.81383˚ 36.90350˚ - 0 nm - SIVAS
GEM VOR - 7,200 ft / 2,195 m 39.15528˚ 36.02917˚ 56 nm 56 nm 226° / 225° GEMEREK VOR-DME
O LTAU APT - 0 ft / 0 m 38.77038˚ 35.49543˚ 33 nm 90 nm 227° / 227° ERKILET

Altitude Profile

Advertisement - Login to hide

LTAR

Details ICAO LTAR (VAS)
Name SIVAS
Region Turkey
Timezone Europe/Istanbul (UTC+3.0)
Stats Elevation 5,236 ft / 1,596 m (AMSL)
Location 39.813834° 36.903500°
Runways 1
Magnetic Variation 5.975° E

METAR

LTAR 221350Z 34018KT 9999 SCT040 22/10 Q1015 RMK RWY19 31018KT

Decode

TAF

Not found

Departure Runways

ID Width Length Bearing (true) Bearing (mag) Surface Threshold Offset Overrun Length
01 98 ft / 30 m 12,521 ft / 3,816 m 17.81° 11.84° Concrete 0 ft / 0 m 690 ft / 210 m
19 98 ft / 30 m 12,521 ft / 3,816 m 197.82° 191.85° Concrete 0 ft / 0 m 0 ft / 0 m

LTAU

Details ICAO LTAU (ASR)
Name ERKILET
Region Turkey
Timezone Europe/Istanbul (UTC+3.0)
Stats Elevation 3,463 ft / 1,056 m (AMSL)
Location 38.770384° 35.495427°
Runways 1
Magnetic Variation 5.708° E

METAR

LTAU 221420Z 34009KT 300V020 9999 SCT040 29/05 Q1011 NOSIG RMK RWY07 32012KT 280V360

Decode

TAF

TAF LTAU 221040Z 2212/2312 35008KT 9999 SCT040 BECMG 2217/2220 CAVOK BECMG 2305/2308 SCT040

Decode

Destination Runways

ID Width Length Bearing (true) Bearing (mag) Surface Threshold Offset Overrun Length
07 145 ft / 44 m 9,822 ft / 2,994 m 76.29° 70.58° Concrete 0 ft / 0 m 500 ft / 152 m
25 145 ft / 44 m 9,822 ft / 2,994 m 256.31° 250.60° Concrete 0 ft / 0 m 500 ft / 152 m

Approach Navaids

Runway Type Ident Frequency Range Bearing (true) Bearing (mag) Slope Elevation
25 Localiser IKSR 110.30 MHz 18 nm / 33 km 256.40° 250.69° - 3,453 ft / 1,052 m (AMSL)
25 Glidescope IKSR 110.30 MHz 10 nm / 19 km 256.30° 250.59° 3.00° 3,463 ft / 1,056 m (AMSL)

Popular Alternatives